Regional Weather Roundup
Issued by NWS

Home | Current Version | Previous Version | Graphics & Text | Print | Product List | Glossary On
Versions: 1 2 3 4 5 6 7 8 9 10 11 12 13 14 15 16 17 18 19 20 21 22 23 24 25 26 27 28 29 30 31 32 33 34 35 36 37 38 39 40 41 42 43 44 45 46
000
ASUS45 KBOU 220707
RWRCO

WEATHER ROUNDUP FOR COLORADO
NATIONAL WEATHER SERVICE DENVER/BOULDER CO
100 AM MDT WED OCT 22 2014

NOTE: "FAIR" INDICATES FEW OR NO CLOUDS BELOW 12000 FEET WITH NO
SIGNIFICANT WEATHER AND/OR OBSTRUCTIONS TO VISIBILITY.

COZ001>005-013-030-031-220800-
...NORTHWEST COLORADO...

CITY           SKY/WX    TMP DP  RH WIND       PRES   REMARKS
CRAIG          RAIN      45  39  79 S22G28    30.12F
HAYDEN         CLOUDY    43  39  87 S8        30.17R
MEEKER         LGT RAIN  44  39  82 MISG      30.14F
MOUNT WERNER   NOT AVBL
STEAMBOAT SPGS CLOUDY    41  39  94 CALM      30.19R
WALDEN         CLOUDY    36  34  93 SE5       30.16S
$$

COZ006>008-011-220800-
...WEST CENTRAL VALLEYS...

CITY           SKY/WX    TMP DP  RH WIND       PRES   REMARKS
GRAND JUNCTION LGT RAIN  51  44  77 N9        30.08R
MONTROSE       PTCLDY    52  40  63 SE13      30.08S
EAGLE          CLOUDY    45  41  87 W13       30.17R
RIFLE          CLOUDY    48  43  82 S8        30.12S
DELTA          CLOUDY    56  43  60 SW9G22    30.08R
NUCLA          PTCLDY    46  37  71 NE6       30.12R
$$

COZ017>023-064>068-220800-
...SOUTHWEST COLORADO...

CITY           SKY/WX    TMP DP  RH WIND       PRES   REMARKS
DURANGO        MOCLDY    44  43  96 CALM      30.15S
CORTEZ         MOCLDY    47  42  83 NE3       30.10S
PAGOSA SPRINGS MOCLDY    44  44  99 CALM      30.21R
TELLURIDE      NOT AVBL
WOLF CREEK PAS CLOUDY    32  32 100 SW13G23     N/A  VSB<1/4 WCI  22
$$

COZ009-010-012-014-032>034-037-058>063-220800-
...CENTRAL COLORADO...

CITY           SKY/WX    TMP DP  RH WIND       PRES   REMARKS
ASPEN          MOCLDY    39  36  89 SW8       30.15S
BUENA VISTA    PTCLDY    39  37  94 NW7       30.17R
COPPER MTN     PTCLDY    36  28  75 S9G22     30.31S
BERTHOUD PASS  FAIR      28  27  93 W16       30.31S WCI  17
COTTONWOOD PAS PTCLDY    45  34  65 CALM      30.23S
GUNNISON       MOCLDY    37  34  87 CALM      30.21R
KREMMLING      CLOUDY    43  34  70 N7          N/A
LEADVILLE      PTCLDY    31  30  96 NE5       30.22F WCI  26
MONARCH PASS   FOG       32  32 100 MISG      30.41F VSB<1/4
SALIDA         PTCLDY    45  42  88 W5        30.22S
SUNLIGHT       TSTM      34  34 100 NW3       30.29R VSB 1/4
WILKERSON PASS NOT AVBL
$$

COZ069>075-220800-
...SAN LUIS VALLEY/SANGRE DE CRISTO MOUNTAINS...

CITY           SKY/WX    TMP DP  RH WIND       PRES   REMARKS
ALAMOSA        MOCLDY    47  38  71 S7        30.15S
LA VETA PASS   MOCLDY    39  36  87 S12G20    30.24R
SAGUACHE       CLOUDY    45  37  76 NW13      30.17S
$$

COZ035-036-038>040-220800-
...NORTHERN COLORADO FRONT RANGE...

CITY           SKY/WX    TMP DP  RH WIND       PRES   REMARKS
DENVER INTL AP LGT RAIN  57  42  57 W13       30.00R
DMNS CITY PARK   N/A     53  45  74 NE2       29.98S
AURORA         LGT RAIN  54  43  65 N7        30.01R
FRONT RANGE AP NOT AVBL
ERIE MUNI ARPT CLOUDY    53  48  81 CALM      29.97S
BOULDER MUN AP CLOUDY    55  41  58 S5        29.97S
CENTENNIAL     LGT RAIN  54  42  64 E10       30.00R
BROOMFIELD     CLOUDY    54  45  71 NW8       29.99S
FORT COLLINS   MOCLDY    55  43  62 N12       29.99R
LONGMONT       MOCLDY    54  47  77 NE5       30.00R
$$

COZ041-046-047-076>085-087-088-220800-
...PIKES PEAK/PALMER DIVIDE AND SOUTHERN FOOTHILLS...

CITY           SKY/WX    TMP DP  RH WIND       PRES   REMARKS
COLO. SPRINGS  MOCLDY    60  37  42 N12       30.01R
A. F. ACADEMY  MOCLDY    57  37  46 W12G17    30.02F
ELLICOTT       MOCLDY    49  41  74 NE8       30.00R
FALCON         CLOUDY    56  35  45 NW16      30.05S
FORT CARSON    CLOUDY    53  40  61 N2        29.98S
LIMON          CLOUDY    49  43  80 CALM      29.98F
MONUMENT HILL  CLOUDY    50  36  57 W5        30.05S
TRINIDAD       PTCLDY    56  45  66 W14       30.02R
$$

COZ042>045-048>051-090-091-220800-
...NORTHEAST COLORADO...

CITY           SKY/WX    TMP DP  RH WIND       PRES   REMARKS
GREELEY ARPT   CLOUDY    55  45  67 N10       29.97S
AKRON          MOCLDY    54  43  66 SW7       29.92R
BURLINGTON     PTCLDY    56  44  64 S15       29.94F
WRAY           PTCLDY    61  46  59 S12G17    29.90S
STERLING       MOCLDY    54  43  66 N6        29.90R
HOLYOKE        PTCLDY    54  45  71 S5        29.90S
FORT MORGAN    MOCLDY    59  43  55 N16       29.94R
$$

COZ086-089-092>099-220800-
...SOUTHEAST COLORADO...

CITY           SKY/WX    TMP DP  RH WIND       PRES   REMARKS
PUEBLO         CLOUDY    53  41  63 E3        29.94R
LA JUNTA       MOCLDY    62  48  60 SW14      29.93S
LAMAR          PTCLDY    58  48  69 S16       29.92S
SPRINGFIELD      N/A     54  49  83 SW7       30.01S
$$



USA.gov is the U.S. government's official web portal to all federal, state and local government web resources and services.